Weather History for KIKV - June, 2014

Change the Weather History Date:

Wednesday, June 18, 2014

  Actual Average (KDSM) Record (KDSM)
Temperature  
Mean Temperature 78 °F 73 °F  
Max Temperature 87 °F 83 °F 98 °F (1953)
Min Temperature 68 °F 63 °F 49 °F (2000)
Degree Days  
Heating Degree Days 0 0  
Month to date heating degree days 14  
Since 1 June heating degree days 14  
Since 1 July heating degree days 6199  
Cooling Degree Days 12 8  
Month to date cooling degree days 106  
Year to date cooling degree days 182  
Since 1 June cooling degree days 106  
Growing Degree Days 28 (Base 50)    
Moisture  
Dew Point 73 °F    
Average Humidity 81    
Maximum Humidity 100    
Minimum Humidity 66    
Precipitation  
Precipitation 0.00 in 0.17 in 2.45 in (1998)
Month to date precipitation 2.96  
Year to date precipitation 16.14  
Snow  
Snow 0.00 in 0.00 in - ()
Month to date snowfall 0.0  
Since 1 June snowfall 0.0  
Since 1 July snowfall 35.3  
Snow Depth -    
Sea Level Pressure  
Sea Level Pressure 29.83 in    
Wind  
Wind Speed 10 mph (SSE)    
Max Wind Speed 17 mph    
Max Gust Speed 23 mph    
Visibility 10 miles    
Events Rain    
T = Trace of Precipitation, MM = Missing Value Source: NWS Daily Summary

Daily Weather History Graph

Daily Weather History Graph

Search for Another Location

Airport or City:

Trip Planner

Search our weather history database for the weather conditions in past years. The results will help you decide how hot, cold, wet, or windy it might be!

Date:

Astronomy

Jun. 18, 2014 Rise Set
Actual Time 5:39 AM CDT 8:51 PM CDT
Civil Twilight 5:05 AM CDT 9:25 PM CDT
Nautical Twilight 4:21 AM CDT 10:09 PM CDT
Astronomical Twilight 3:28 AM CDT 11:02 PM CDT
Moon 12:16 AM CDT (6/18) 12:08 PM CDT (6/18)
Length of Visible Light 16h 20m
Length of Day
15h 12m
Waning Gibbous, 62% of the Moon is Illuminated
Jun 18
Waning Gibbous
Jun 19
Last Quarter
Jun 27
New
Jul 5
First Quarter
Jul 12
Full

Hourly Weather History & Observations

Time (CDT) Temp. Heat Index Dew Point Humidity Pressure Visibility Wind Dir Wind Speed Gust Speed Precip Events Conditions
12:15 AM 78.8 °F - 73.4 °F 83% 29.80 in 10.0 mi South 9.2 mph - N/A   Scattered Clouds
12:35 AM 78.8 °F - 73.4 °F 83% 29.79 in 10.0 mi South 12.7 mph - N/A   Scattered Clouds
1:15 AM 78.8 °F - 71.6 °F 78% 29.79 in 10.0 mi South 10.4 mph 19.6 mph N/A   Clear
1:35 AM 78.8 °F - 71.6 °F 78% 29.80 in 10.0 mi South 10.4 mph - N/A   Mostly Cloudy
1:55 AM 80.6 °F 85.4 °F 73.4 °F 79% 29.81 in 10.0 mi South 10.4 mph - N/A   Overcast
2:15 AM 78.8 °F - 73.4 °F 83% 29.81 in 10.0 mi South 6.9 mph 12.7 mph N/A   Overcast
2:35 AM 78.8 °F - 73.4 °F 83% 29.81 in 10.0 mi South 6.9 mph - N/A   Mostly Cloudy
2:55 AM 77.0 °F - 71.6 °F 83% 29.80 in 10.0 mi SSE 8.1 mph - N/A   Partly Cloudy
3:15 AM 77.0 °F - 73.4 °F 89% 29.78 in 10.0 mi SSE 10.4 mph - N/A   Clear
3:35 AM 77.0 °F - 73.4 °F 89% 29.78 in - SSE 9.2 mph - N/A   Clear
3:55 AM 77.0 °F - 71.6 °F 83% 29.79 in 10.0 mi SSE 8.1 mph - N/A   Clear
4:15 AM 75.2 °F - 71.6 °F 89% 29.80 in 10.0 mi SSE 8.1 mph - N/A   Clear
4:35 AM 75.2 °F - 71.6 °F 89% 29.80 in 10.0 mi South 8.1 mph - N/A   Clear
4:55 AM 75.2 °F - 71.6 °F 89% 29.79 in 10.0 mi South 8.1 mph - N/A   Clear
5:15 AM 75.2 °F - 71.6 °F 89% 29.79 in 10.0 mi South 8.1 mph - N/A   Clear
5:35 AM 75.2 °F - 71.6 °F 89% 29.78 in 10.0 mi South 9.2 mph - N/A   Clear
5:55 AM 75.2 °F - 71.6 °F 89% 29.79 in 9.0 mi South 8.1 mph - N/A   Clear
6:15 AM 75.2 °F - 71.6 °F 89% 29.80 in 9.0 mi South 5.8 mph - N/A   Clear
6:35 AM 75.2 °F - 71.6 °F 89% 29.83 in 9.0 mi NE 4.6 mph - N/A   Partly Cloudy
6:55 AM 75.2 °F - 71.6 °F 89% 29.83 in 9.0 mi Calm Calm - N/A   Mostly Cloudy
7:15 AM 75.2 °F - 73.4 °F 94% 29.85 in 8.0 mi NNE 8.1 mph - N/A   Overcast
7:35 AM 75.2 °F - 71.6 °F 89% 29.87 in 8.0 mi NE 9.2 mph - N/A   Overcast
7:55 AM 75.2 °F - 71.6 °F 89% 29.87 in 9.0 mi ENE 10.4 mph 16.1 mph N/A   Overcast
8:15 AM 71.6 °F - 66.2 °F 83% 29.88 in 10.0 mi ENE 15.0 mph 21.9 mph N/A   Overcast
8:35 AM 69.8 °F - 66.2 °F 88% 29.90 in 2.0 mi NE 11.5 mph 18.4 mph N/A Rain Light Rain
9:15 AM 68.0 °F - 66.2 °F 94% 29.89 in 4.0 mi East 8.1 mph 13.8 mph N/A   Light Drizzle
9:35 AM 68.0 °F - 68.0 °F 100% 29.88 in 8.0 mi SE 9.2 mph - N/A   Mostly Cloudy
9:55 AM 69.8 °F - 68.0 °F 94% 29.86 in 10.0 mi SE 13.8 mph - N/A   Partly Cloudy
10:15 AM 73.4 °F - 68.0 °F 83% 29.85 in 10.0 mi SE 12.7 mph 19.6 mph N/A   Clear
10:35 AM 75.2 °F - 69.8 °F 83% 29.85 in 10.0 mi SE 10.4 mph 17.3 mph N/A   Clear
10:55 AM 77.0 °F - 71.6 °F 83% 29.84 in 10.0 mi SSE 15.0 mph 23.0 mph N/A   Clear
11:15 AM 77.0 °F - 71.6 °F 83% 29.83 in 10.0 mi SSE 17.3 mph - N/A   Clear
11:35 AM 78.8 °F - 71.6 °F 78% 29.84 in 10.0 mi SE 12.7 mph 18.4 mph N/A   Partly Cloudy
11:55 AM 78.8 °F - 73.4 °F 83% 29.83 in 10.0 mi SSE 15.0 mph 20.7 mph N/A   Clear
12:15 PM 80.6 °F 85.4 °F 73.4 °F 79% 29.84 in 10.0 mi SSE 10.4 mph 18.4 mph N/A   Scattered Clouds
12:35 PM 80.6 °F 85.4 °F 73.4 °F 79% 29.84 in 10.0 mi SSE 10.4 mph 18.4 mph N/A   Partly Cloudy
1:15 PM 84.2 °F 92.3 °F 75.2 °F 74% 29.83 in 10.0 mi SE 13.8 mph 20.7 mph N/A   Scattered Clouds
1:35 PM 84.2 °F 92.3 °F 75.2 °F 74% 29.83 in 10.0 mi SSE 13.8 mph - N/A   Scattered Clouds
1:55 PM 84.2 °F 92.3 °F 75.2 °F 74% 29.83 in 10.0 mi ESE 12.7 mph - N/A   Mostly Cloudy
2:35 PM 84.2 °F 92.3 °F 75.2 °F 74% 29.82 in 10.0 mi SSE 15.0 mph - N/A   Mostly Cloudy
2:55 PM 84.2 °F 94.1 °F 77.0 °F 79% 29.82 in 10.0 mi SE 11.5 mph - N/A   Overcast
3:35 PM 84.2 °F 92.3 °F 75.2 °F 74% 29.82 in 10.0 mi ESE 8.1 mph 13.8 mph N/A   Overcast
3:55 PM 84.2 °F 92.3 °F 75.2 °F 74% 29.82 in 10.0 mi SE 10.4 mph - N/A   Overcast
4:15 PM 84.2 °F 94.1 °F 77.0 °F 79% 29.81 in 10.0 mi SE 9.2 mph 16.1 mph N/A   Overcast
4:35 PM 84.2 °F 94.1 °F 77.0 °F 79% 29.81 in 10.0 mi SE 6.9 mph - N/A   Overcast
4:55 PM 86.0 °F 96.9 °F 77.0 °F 74% 29.81 in 10.0 mi SE 10.4 mph - N/A   Overcast
5:15 PM 86.0 °F 96.9 °F 77.0 °F 74% 29.80 in 10.0 mi SSE 9.2 mph - N/A   Mostly Cloudy
5:35 PM 87.8 °F 99.7 °F 77.0 °F 70% 29.80 in 10.0 mi SSE 8.1 mph 15.0 mph N/A   Partly Cloudy
5:55 PM 87.8 °F 99.7 °F 77.0 °F 70% 29.80 in 10.0 mi South 11.5 mph - N/A   Partly Cloudy
6:15 PM 86.0 °F 96.9 °F 77.0 °F 74% 29.80 in 10.0 mi South 9.2 mph - N/A   Scattered Clouds
6:35 PM 87.8 °F 97.6 °F 75.2 °F 66% 29.80 in 10.0 mi South 10.4 mph - N/A   Mostly Cloudy
6:55 PM 87.8 °F 97.6 °F 75.2 °F 66% 29.81 in 10.0 mi South 9.2 mph 18.4 mph N/A   Mostly Cloudy
7:15 PM 86.0 °F 95.1 °F 75.2 °F 70% 29.81 in 10.0 mi South 9.2 mph - N/A   Scattered Clouds
7:35 PM 86.0 °F 95.1 °F 75.2 °F 70% 29.81 in 10.0 mi South 12.7 mph - N/A   Scattered Clouds
7:55 PM 86.0 °F 95.1 °F 75.2 °F 70% 29.81 in 10.0 mi South 10.4 mph 17.3 mph N/A   Partly Cloudy
8:15 PM 84.2 °F 92.3 °F 75.2 °F 74% 29.83 in 10.0 mi South 6.9 mph - N/A   Partly Cloudy
8:35 PM 84.2 °F 92.3 °F 75.2 °F 74% 29.83 in 10.0 mi South 9.2 mph - N/A   Partly Cloudy
8:55 PM 84.2 °F 92.3 °F 75.2 °F 74% 29.83 in 10.0 mi South 8.1 mph 15.0 mph N/A   Clear
9:15 PM 82.4 °F 89.5 °F 75.2 °F 79% 29.83 in 10.0 mi SSE 5.8 mph - N/A   Clear
9:35 PM 80.6 °F 86.2 °F 75.2 °F 84% 29.84 in 10.0 mi SSE 5.8 mph - N/A   Clear
9:55 PM 80.6 °F 86.2 °F 75.2 °F 84% 29.85 in 10.0 mi South 4.6 mph - N/A   Clear
10:15 PM 78.8 °F - 73.4 °F 83% 29.86 in 10.0 mi SSE 4.6 mph - N/A   Clear
10:35 PM 78.8 °F - 73.4 °F 83% 29.86 in 10.0 mi South 5.8 mph - N/A   Clear
10:55 PM 78.8 °F - 73.4 °F 83% 29.86 in 10.0 mi SSE 6.9 mph - N/A   Clear
11:15 PM 78.8 °F - 73.4 °F 83% 29.86 in 10.0 mi SSE 8.1 mph - N/A   Clear
11:35 PM 78.8 °F - 73.4 °F 83% 29.86 in 10.0 mi South 9.2 mph - N/A   Clear
11:55 PM 78.8 °F - 73.4 °F 83% 29.85 in 10.0 mi South 11.5 mph - N/A   Clear